sat.trackr.live / text

‹ back to catalog

STARLINK-34819

NORAD 65040 · 2025-161AB

PAYLOAD ACTIVE UNKNOWN

§ Identity

Operator
Country
US
Launch date
2025-07-30
Launch site
AFWTR
Launch vehicle
Mass (kg)
RCS (m²)

Purposes: comms

External: N2YO · Heavens-Above · Gunter

§ Orbital elements

Epoch: 2026-09-20T21:32:43.432224Z

Period
93.85 min
Inclination
53.1588°
Eccentricity
0.0000808
Mean motion
15.34408528 rev/d
Perigee alt
462.1 km
Apogee alt
463.2 km
Semi-major
6,840.8 km
B*
6.5121e-4
RAAN
105.5901°
Arg perigee
90.4054°
Mean anomaly
269.7041°
Rev number
6,414

§ Raw data

STARLINK-348191 65040U 25161AB  26263.89772491  .00021696  00000+0  65121-3 0  99972 65040  53.1588 105.5901 0000808  90.4054 269.7041 15.34408528 64140

JSON: /api/v1/satellites/65040 · /tle

For live sub-satellite position, see the globe view (requires WebGL).

§ Visibility from observer

Set your observer location to see the next 7 days of passes ≥ 10°. The values pass through the URL so the page stays shareable.

No JS? Fill the form by hand. The geolocation button needs JavaScript.